KC2RP Weather Reports


time (UTC)temp
C
wind
direction
speed
KPH
gust
KPH
rain 1hr
cm
rain 24hr
cm
rain mn
cm
humidity
%
barometer
mb
20260510130049 12 311 0.0 4.8 0.00 0.97 0.00 97 1010.8
20260510124550 12 107 0.0 3.2 0.00 0.97 0.00 97 1010.6
20260510123043 12 205 0.0 6.4 0.00 0.97 0.00 97 1010.6
20260510121543 11 276 0.0 4.8 0.00 0.97 0.00 97 1010.6
20260510120038 11 333 0.0 1.6 0.00 0.97 0.00 97 1010.4
20260510114537 -17 0.0 0.0 0.00 0.97 0.00 1010.4
20260510113033 -17 0.0 0.0 0.00 0.97 0.00 1010.3
20260510111529 -17 0.0 0.0 0.00 0.97 0.00 1010.3
20260510110024 -17 0.0 0.0 0.00 0.97 0.00 1010.2
20260510104519 -17 0.0 0.0 0.00 0.97 0.00 1010.2
20260510103016 -17 0.0 0.0 0.00 0.97 0.00 1009.7
20260510101515 -17 0.0 0.0 0.00 0.97 0.00 1009.4
20260510100014 -17 0.0 0.0 0.00 0.97 0.00 1009.2
20260510094514 10 176 0.0 3.2 0.00 0.97 0.00 100 1009.0
20260510093009 10 35 0.0 3.2 0.00 0.97 0.00 97 1008.9
20260510091513 10 340 0.0 3.2 0.00 0.97 0.00 97 1008.6
20260510090014 10 255 0.0 3.2 0.00 0.97 0.00 97 1008.6
20260510084508 10 132 0.0 1.6 0.00 0.97 0.00 97 1008.7
20260510083007 10 262 0.0 1.6 0.00 0.97 0.00 97 1008.7
20260510081517 10 264 0.0 0.0 0.00 0.97 0.00 97 1008.8
20260510080004 10 321 0.0 1.6 0.00 0.97 0.00 97 1008.9
20260510074504 10 16 0.0 1.6 0.00 0.97 0.00 97 1008.6
20260510073001 10 128 0.0 1.6 0.00 0.97 0.00 97 1008.8
20260510071601 10 58 0.0 0.0 0.00 0.97 0.00 97 1008.9
20260510070059 10 58 0.0 1.6 0.00 0.97 0.00 97 1009.6
20260510064602 10 5 0.0 1.6 0.00 0.97 0.00 97 1009.7
20260510063057 10 255 0.0 1.6 0.00 0.97 0.00 97 1009.6
20260510061556 10 276 0.0 0.0 0.00 0.97 0.00 97 1009.4
20260510060056 10 332 0.0 4.8 0.00 0.97 0.00 97 1009.4
20260510054553 10 263 0.0 3.2 0.00 0.97 0.00 97 1009.0
20260510053106 10 235 0.0 6.4 0.00 0.97 0.00 97 1009.0
20260510051602 11 195 0.0 3.2 0.00 0.97 0.00 97 1008.9
20260510050100 11 70 0.0 1.6 0.00 0.97 0.00 97 1008.9
20260510044602 11 85 0.0 4.8 0.00 0.97 0.00 97 1008.9
20260510043055 11 203 0.0 3.2 0.00 0.97 0.00 97 1008.9
20260510041547 10 51 0.0 3.2 0.00 0.97 0.00 97 1009.0
20260510040047 10 3 0.0 1.6 0.00 0.97 0.00 97 1008.9
20260510034545 11 343 0.0 1.6 0.00 0.97 0.00 97 1008.8
20260510033056 10 180 0.0 1.6 0.00 0.97 0.00 97 1008.9
20260510031541 10 34 0.0 1.6 0.00 0.97 0.97 97 1008.7
20260510030046 10 218 0.0 4.8 0.00 0.97 0.97 97 1008.8
20260510024538 11 122 0.0 3.2 0.00 0.97 0.97 97 1008.8
20260510023037 11 43 0.0 0.0 0.00 0.97 0.97 97 1009.0
20260510021536 11 41 0.0 1.6 0.00 0.97 0.97 97 1009.0
20260510020036 11 69 0.0 1.6 0.00 0.97 0.97 97 1008.8
20260510014539 11 237 0.0 4.8 0.00 0.97 0.97 97 1008.9
20260510013036 11 255 0.0 1.6 0.00 0.97 0.97 97 1008.8
20260510011534 11 322 0.0 0.0 0.00 0.97 0.97 97 1009.0
20260510010033 11 22 0.0 0.0 0.00 0.97 0.97 97 1008.9
20260510004534 11 248 0.0 0.0 0.00 0.97 0.97 97 1008.7
20260510003037 11 181 0.0 1.6 0.00 0.97 0.97 97 1008.8
20260510001531 11 302 0.0 1.6 0.00 0.97 0.97 97 1008.5
20260510000030 11 350 0.0 1.6 0.00 0.97 0.97 97 1008.2
20260509234537 11 290 0.0 0.0 0.00 0.97 0.97 96 1008.0
20260509233029 11 167 0.0 0.0 0.00 0.97 0.97 97 1008.0
20260509231528 12 41 0.0 1.6 0.00 0.97 0.97 97 1007.7
20260509230028 12 269 0.0 3.2 0.00 0.97 0.97 97 1007.6
20260509224525 12 308 0.0 1.6 0.00 0.97 0.97 97 1007.7
20260509223026 12 267 0.0 3.2 0.00 0.97 0.97 97 1007.8
20260509221526 12 278 0.0 1.6 0.00 0.97 0.97 97 1007.8
20260509220022 12 260 0.0 0.0 0.00 0.97 0.97 97 1007.9
20260509214519 12 146 0.0 4.8 0.00 0.97 0.97 97 1008.1
20260509213019 11 208 0.0 1.6 0.00 0.97 0.97 97 1008.2
20260509211517 11 336 0.0 1.6 0.00 0.97 0.97 97 1008.2
20260509210019 11 271 0.0 0.0 0.00 0.97 0.97 97 1008.2
20260509204514 11 224 0.0 3.2 0.03 0.97 0.97 97 1008.5
20260509203011 10 338 0.0 0.0 0.03 0.97 0.97 97 1008.7
20260509201608 10 311 0.0 0.0 0.03 0.97 0.97 97 1008.9
20260509200004 10 324 0.0 1.6 0.05 0.97 0.97 97 1009.1
20260509194502 10 16 0.0 1.6 0.03 0.94 0.94 97 1009.3
20260509193117 10 94 0.0 1.6 0.03 0.94 0.94 97 1009.4
20260509191559 10 360 0.0 1.6 0.05 0.94 0.94 97 1009.6
20260509190105 10 236 0.0 1.6 0.03 0.91 0.91 97 1009.7
20260509184607 10 219 0.0 1.6 0.05 0.91 0.91 97 1009.6
20260509183056 10 15 0.0 1.6 0.08 0.91 0.91 97 1009.9
20260509181553 9 250 0.0 1.6 0.08 0.89 0.89 97 1009.9
20260509180049 9 250 0.0 1.6 0.10 0.89 0.89 96 1010.0
20260509174548 8 101 0.0 4.8 0.10 0.86 0.86 96 1010.0
20260509173057 8 360 0.0 1.6 0.10 0.84 0.84 96 1010.1
20260509171602 8 41 0.0 0.0 0.10 0.81 0.81 96 1010.3
20260509170044 8 326 0.0 0.0 0.10 0.79 0.79 96 1010.3
20260509164540 8 15 0.0 1.6 0.10 0.76 0.76 96 1010.4
20260509163037 8 74 0.0 4.8 0.10 0.71 0.71 96 1010.7
20260509161536 8 328 0.0 1.6 0.13 0.71 0.71 96 1011.0
20260509160032 8 18 0.0 1.6 0.18 0.69 0.69 96 1011.2
20260509154534 8 25 0.0 3.2 0.20 0.66 0.66 96 1011.5
20260509153028 8 32 0.0 1.6 0.23 0.61 0.61 96 1011.7
20260509151524 8 332 0.0 0.0 0.28 0.58 0.58 96 1012.0
20260509150023 7 330 0.0 0.0 0.25 0.51 0.51 96 1012.2
20260509144521 7 332 0.0 0.0 0.23 0.43 0.43 96 1012.0
20260509143025 7 331 0.0 0.0 0.23 0.38 0.38 95 1012.0
20260509141524 7 329 0.0 0.0 0.18 0.30 0.30 95 1011.9
20260509140018 7 328 0.0 0.0 0.13 0.23 0.23 95 1011.9
20260509134517 7 328 0.0 0.0 0.10 0.18 0.18 95 1011.8
20260509133019 7 328 0.0 0.0 0.13 0.15 0.15 95 1011.8
20260509131520 7 328 0.0 0.0 0.13 0.13 0.13 95 1011.8